This is the latest recevied weather packets stored in our database for station/object GAPWX. If no packets are shown the sender has not sent any weather packets the latest 10 day(s).
| Time | Temp. | Humidity | Pressure | Rain* | Wind** | Luminosity | Snow |
|---|---|---|---|---|---|---|---|
| 1777949197 | 1.11° C | 73% | 1012.9 hPa | 12.45 mm | - | - | - |
| 1777948595 | 1.67° C | 73% | 1013 hPa | 12.45 mm | - | - | - |
| 1777947993 | 1.67° C | 73% | 1012.8 hPa | 12.45 mm | - | - | - |
| 1777947691 | 1.67° C | 73% | 1012.9 hPa | 12.45 mm | - | - | - |
| 1777946787 | 1.67° C | 73% | 1013.1 hPa | 12.45 mm | - | - | - |
| 1777945884 | 1.67° C | 73% | 1013.1 hPa | 12.45 mm | - | - | - |
| 1777945582 | 1.67° C | 73% | 1013.2 hPa | 12.45 mm | - | - | - |
| 1777944376 | 1.67° C | 73% | 1013.5 hPa | 12.45 mm | - | - | - |
| 1777944076 | 1.67° C | 73% | 1013.4 hPa | 12.45 mm | - | - | - |
| 1777943774 | 1.67° C | 73% | 1013.5 hPa | 12.45 mm | - | - | - |
| 1777943475 | 1.67° C | 73% | 1013.4 hPa | 12.45 mm | - | - | - |
| 1777942567 | 2.22° C | 72% | 1013.2 hPa | 12.45 mm | - | - | - |
| 1777941966 | 2.22° C | 72% | 1013.2 hPa | 12.45 mm | - | - | - |
| 1777938951 | 3.33° C | 71% | 1013.3 hPa | 12.19 mm | - | - | - |
| 1777938048 | 3.89° C | 71% | 1013.3 hPa | 11.68 mm | - | - | - |
| 1777937745 | 3.89° C | 71% | 1013.2 hPa | 11.68 mm | - | - | - |
| 1777936540 | 4.44° C | 71% | 1013.3 hPa | 10.67 mm | - | - | - |
| 1777935336 | 5° C | 71% | 1013.3 hPa | 9.91 mm | - | - | - |
| 1777935034 | 5° C | 71% | 1013.2 hPa | 9.65 mm | - | - | - |
| 1777934732 | 5° C | 71% | 1013.2 hPa | 9.4 mm | - | - | - |
| 1777934433 | 5° C | 72% | 1013.3 hPa | 9.14 mm | - | - | - |
| 1777933829 | 5° C | 72% | 1013 hPa | 8.64 mm | - | - | - |
| 1777933560 | 5° C | 72% | 1013.3 hPa | 8.38 mm | - | - | - |
| 1777932924 | 5.56° C | 71% | 1013.1 hPa | 7.62 mm | - | - | - |
| 1777931419 | 5.56° C | 71% | 1013 hPa | 6.1 mm | - | - | - |
* Rain since midnight (hover to see other rain measurements)
** Current wind speed in m/s (hover to see current wind gust speed)